User: anonymous   Login
Location: Columbia
(38.9520°N, 92.3340°W)
Time: 01:52:20
(UTC-05:00)
Language:

CZ-4B R/B - Orbit

View from above orbital plane
View from above orbital plane
View from above satellite
View from above satellite

Ground track
Ground track

The orbit data is extracted from the following two-line orbital elements,

1 29093U 06015B   17176.52197672 +.00001720 +00000-0 +42852-4 0  9991
2 29093 097.4964 287.6267 0062337 288.3014 071.1457 15.39827839618712
Epoch (UTC): 25 June 2017 12:31:38
Eccentricity: 0.0062337
inclination: 97.4964°
perigee height: 404 km
apogee height: 489 km
right ascension of ascending node: 287.6267°
argument of perigee: 288.3014°
revolutions per day: 15.39827839
mean anomaly at epoch: 71.1457°
orbit number at epoch: 61871

The dashed part of the orbit path shows where the satellite is in the earth's shadow,  

DLR